GLOBALSTAR M040 [P]

Last updated on May 3, 2016, 11:39 p.m. UTC

1 25622U 99004B   16124.90834109 -.00000069  00000-0  19428-3 0  9990
2 25622  51.9900 114.6984 0000393 232.6795 140.3285 12.61854626794975
UTC
Height (km)
Latitude
Longitude
Inclination
Orbital Period
UTC large
Height (km)
Speed (km/s)
/
Latitude / Longitude
Inclination (degrees)
Orbital Period (minutes)
Azimuth
Elevation
Range (km)
Doppler Factor
iOS Compass Heading
iOS Angle